Watonga, OK

11:28 PM CST on February 13, 2016 (GMT -0600)
Watonga

Weather History for KJWG - December, 2012

Change the Weather History Date:

Friday, December 28, 2012

  Actual Average Record
Temperature  
Mean Temperature 26 °F -  
Max Temperature 34 °F 46 °F 73 °F (1984)
Min Temperature 17 °F 27 °F 10 °F (1983)
Degree Days  
Heating Degree Days 39    
Moisture  
Dew Point 20 °F    
Average Humidity 77    
Maximum Humidity 100    
Minimum Humidity 51    
Precipitation  
Precipitation 0.00 in - - ()
Sea Level Pressure  
Sea Level Pressure 30.05 in    
Wind  
Wind Speed 10 mph (NNW)    
Max Wind Speed 18 mph    
Max Gust Speed 24 mph    
Visibility 10 miles    
Events      
Averages and records for this station are not official NWS values.
T = Trace of Precipitation, MM = Missing Value Source: NWS Daily Summary

Daily Weather History Graph

Daily Weather History Graph

Search for Another Location

Airport or City:

Trip Planner

Search our weather history database for the weather conditions in past years. The results will help you decide how hot, cold, wet, or windy it might be!

Date:

Astronomy

Dec. 28, 2012 Rise Set
Actual Time 7:43 AM CST 5:28 PM CST
Civil Twilight 7:14 AM CST 5:56 PM CST
Nautical Twilight 6:42 AM CST 6:28 PM CST
Astronomical Twilight 6:11 AM CST 6:59 PM CST
Moon 6:04 PM CST (12/28) 7:40 AM CST (12/28)
Length of Visible Light 10h 41m
Length of Day
9h 45m
Full, 100% of the Moon is Illuminated
Dec 28
Full
Jan 4
Last Quarter
Jan 11
New
Jan 18
First Quarter
Jan 26
Full

Hourly Weather History & Observations

Time (CST) Temp. Windchill Dew Point Humidity Pressure Visibility Wind Dir Wind Speed Gust Speed Precip Events Conditions
12:15 AM 23.2 °F 16.0 °F 23.2 °F 100% 29.96 in 7.0 mi NW 5.8 mph - N/A   Clear
12:35 AM 21.9 °F 14.5 °F 21.9 °F 100% 29.95 in 7.0 mi NW 5.8 mph - N/A   Clear
12:55 AM 23.9 °F 15.8 °F 23.9 °F 100% 29.95 in 7.0 mi NNW 6.9 mph - N/A   Clear
1:15 AM 24.6 °F 16.7 °F 24.6 °F 100% 29.95 in 10.0 mi NNW 6.9 mph - N/A   Clear
1:35 AM 24.6 °F 15.8 °F 24.6 °F 100% 29.96 in 10.0 mi NNW 8.1 mph - N/A   Clear
1:55 AM 25.7 °F 15.1 °F 25.3 °F 99% 29.95 in 10.0 mi North 11.5 mph - N/A   Clear
2:15 AM 26.2 °F 15.8 °F 25.5 °F 97% 29.97 in 10.0 mi NNW 11.5 mph - N/A   Clear
2:35 AM 26.6 °F 15.7 °F 25.3 °F 95% 29.97 in 10.0 mi North 12.7 mph - N/A   Clear
2:55 AM 26.4 °F 18.9 °F 24.1 °F 91% 29.98 in 10.0 mi North 6.9 mph - N/A   Clear
3:15 AM 26.1 °F 16.2 °F 23.9 °F 92% 29.98 in 10.0 mi North 10.4 mph - N/A   Clear
3:35 AM 26.2 °F 16.4 °F 23.9 °F 91% 29.98 in 10.0 mi NNW 10.4 mph - N/A   Clear
3:55 AM 26.1 °F 15.6 °F 23.9 °F 92% 29.98 in 10.0 mi NNW 11.5 mph - N/A   Clear
5:15 AM 26.6 °F 15.7 °F 23.7 °F 89% 29.98 in 10.0 mi NNW 12.7 mph - N/A   Overcast
6:15 AM 26.2 °F 14.7 °F 22.8 °F 87% 29.98 in 10.0 mi NNW 13.8 mph - N/A   Overcast
6:55 AM 26.1 °F 15.6 °F 22.5 °F 86% 29.99 in 10.0 mi North 11.5 mph - N/A   Mostly Cloudy
7:15 AM 26.1 °F 15.0 °F 22.5 °F 86% 29.99 in 10.0 mi North 12.7 mph - N/A   Mostly Cloudy
7:35 AM 26.1 °F 15.6 °F 22.3 °F 86% 30.01 in 10.0 mi NNW 11.5 mph - N/A   Overcast
7:55 AM 26.2 °F 16.4 °F 22.1 °F 84% 30.03 in 10.0 mi NNW 10.4 mph - N/A   Overcast
8:15 AM 26.2 °F 15.8 °F 22.3 °F 85% 30.02 in 10.0 mi NNW 11.5 mph - N/A   Overcast
8:35 AM 26.4 °F 15.5 °F 22.5 °F 85% 30.02 in 7.0 mi NNW 12.7 mph 18.4 mph N/A   Overcast
8:55 AM 26.4 °F 17.3 °F 23.2 °F 88% 30.03 in 5.0 mi North 9.2 mph - N/A   Overcast
9:15 AM 26.6 °F 15.2 °F 22.5 °F 84% 30.03 in 10.0 mi North 13.8 mph 19.6 mph N/A   Mostly Cloudy
9:35 AM 26.6 °F 14.3 °F 22.3 °F 84% 30.04 in 10.0 mi NNW 16.1 mph - N/A   Scattered Clouds
9:55 AM 26.8 °F 14.9 °F 21.7 °F 81% 30.05 in 10.0 mi NNW 15.0 mph - N/A   Mostly Cloudy
10:15 AM 26.6 °F 15.7 °F 20.7 °F 78% 30.06 in 10.0 mi NNW 12.7 mph 20.7 mph N/A   Scattered Clouds
10:35 AM 26.4 °F 15.0 °F 20.1 °F 77% 30.07 in 10.0 mi NNW 13.8 mph 19.6 mph N/A   Clear
10:55 AM 28.2 °F 15.9 °F 20.3 °F 72% 30.07 in 10.0 mi North 17.3 mph - N/A   Clear
11:15 AM 29.3 °F 17.0 °F 19.9 °F 68% 30.08 in 10.0 mi North 18.4 mph - N/A   Clear
11:35 AM 29.8 °F 17.7 °F 20.1 °F 67% 30.07 in 10.0 mi NNW 18.4 mph 24.2 mph N/A   Clear
11:55 AM 30.4 °F 20.0 °F 20.1 °F 66% 30.08 in 10.0 mi North 13.8 mph 20.7 mph N/A   Clear
12:15 PM 30.7 °F 20.4 °F 20.1 °F 65% 30.07 in 10.0 mi NNW 13.8 mph - N/A   Clear
12:35 PM 31.1 °F 20.5 °F 19.4 °F 62% 30.06 in 10.0 mi NW 15.0 mph - N/A   Mostly Cloudy
12:55 PM 31.5 °F 20.1 °F 18.1 °F 58% 30.06 in 10.0 mi NNW 17.3 mph 21.9 mph N/A   Overcast
1:15 PM 32.0 °F 21.6 °F 18.9 °F 58% 30.04 in 10.0 mi North 15.0 mph 20.7 mph N/A   Overcast
1:35 PM 31.8 °F 22.3 °F 18.9 °F 59% 30.04 in 10.0 mi NNW 12.7 mph 19.6 mph N/A   Mostly Cloudy
2:15 PM 32.7 °F 23.0 °F 18.3 °F 55% 30.03 in 10.0 mi NW 13.8 mph 18.4 mph N/A   Clear
2:35 PM 33.1 °F 23.4 °F 18.1 °F 54% 30.03 in 10.0 mi NW 13.8 mph 17.3 mph N/A   Clear
2:55 PM 34.2 °F 24.4 °F 18.7 °F 53% 30.03 in 10.0 mi NNW 15.0 mph 19.6 mph N/A   Clear
3:15 PM 34.0 °F 24.6 °F 17.6 °F 51% 30.03 in 10.0 mi NNW 13.8 mph 19.6 mph N/A   Clear
3:35 PM 33.8 °F 24.3 °F 17.6 °F 52% 30.03 in 10.0 mi NNW 13.8 mph - N/A   Clear
3:55 PM 33.6 °F 23.7 °F 17.6 °F 52% 30.04 in 10.0 mi NW 15.0 mph 18.4 mph N/A   Clear
4:15 PM 32.9 °F 23.7 °F 17.4 °F 53% 30.04 in 10.0 mi NW 12.7 mph 16.1 mph N/A   Clear
4:55 PM 32.0 °F 22.5 °F 17.4 °F 55% 30.06 in 10.0 mi NNW 12.7 mph - N/A   Clear
5:15 PM 32.0 °F 23.0 °F 17.6 °F 55% 30.07 in 10.0 mi NW 11.5 mph - N/A   Clear
5:35 PM 30.9 °F 23.5 °F 18.1 °F 59% 30.09 in 10.0 mi NW 8.1 mph - N/A   Clear
6:15 PM 28.8 °F 22.6 °F 17.6 °F 63% 30.09 in 10.0 mi NNW 5.8 mph - N/A   Clear
6:35 PM 28.0 °F 21.7 °F 18.0 °F 66% 30.10 in 10.0 mi NW 5.8 mph - N/A   Clear
6:55 PM 26.1 °F 17.6 °F 18.3 °F 73% 30.12 in 10.0 mi WNW 8.1 mph - N/A   Clear
7:15 PM 25.5 °F 18.7 °F 17.6 °F 72% 30.12 in 10.0 mi NNW 5.8 mph - N/A   Clear
7:35 PM 26.4 °F 18.9 °F 17.2 °F 68% 30.12 in 10.0 mi NNW 6.9 mph - N/A   Clear
7:55 PM 25.3 °F 18.5 °F 17.2 °F 71% 30.13 in 10.0 mi NW 5.8 mph - N/A   Clear
8:15 PM 23.9 °F 18.0 °F 17.1 °F 75% 30.13 in 10.0 mi NW 4.6 mph - N/A   Clear
8:35 PM 22.3 °F 14.9 °F 16.7 °F 79% 30.14 in 10.0 mi NW 5.8 mph - N/A   Clear
9:35 PM 20.5 °F 15.6 °F 16.0 °F 83% 30.15 in 10.0 mi West 3.5 mph - N/A   Clear
9:55 PM 19.4 °F 12.8 °F 15.6 °F 85% 30.16 in 10.0 mi WSW 4.6 mph - N/A   Clear
10:15 PM 19.9 °F - 15.1 °F 81% 30.17 in 10.0 mi Calm Calm - N/A   Clear
10:35 PM 20.5 °F 15.6 °F 15.3 °F 80% 30.17 in 10.0 mi NW 3.5 mph - N/A   Clear
10:55 PM 19.4 °F - 14.9 °F 83% 30.18 in 10.0 mi Calm Calm - N/A   Clear
11:15 PM 18.3 °F - 14.5 °F 85% 30.19 in 10.0 mi Calm Calm - N/A   Clear
11:35 PM 19.0 °F - 14.4 °F 82% 30.19 in 10.0 mi Calm Calm - N/A   Clear
11:55 PM 17.6 °F 12.3 °F 14.0 °F 86% 30.19 in 10.0 mi NW 3.5 mph - N/A   Clear